Location: Chanteloup
(48.8560°N, 2.7390°E)
Time: 18:44:37
(UTC+00:00)

Cosmos 1758 Rocket - Pass Details

Date: 05 June 2022
Orbit: 601 x 635 km, 82.5° (Epoch: 27 June)

Event Time Altitude Azimuth Distance (km) Brightness Sun altitude
Exits shadow 02:14:45 - 159° (SSE) 2,800 6.6 -11.4°
Reaches altitude 10° 02:17:01 10° 149° (SSE) 1,955 5.9 -11.2°
Maximum altitude 02:20:43 28° 89° (E) 1,134 5.3 -10.9°
Drops below altitude 10° 02:24:26 10° 30° (NNE) 1,959 7.7 -10.5°
Sets 02:26:52 0° 19° (NNE) 2,866 8.6 -10.3°
